Location: Bílinka
(49.3579°N, 14.3767°E)
Time: 09:55:53
(UTC+00:00)

Lacrosse 5 rocket - Visible Passes

Search period start: 28 September 2023 00:00
Search period end: 08 October 2023 00:00
Orbit: 449 x 603 km, 57.0° (Epoch: 27 September)

Date Brightness Start Highest point End Pass type
(mag) Time Alt. Az. Time Alt. Az. Time Alt. Az.
28 Sep 4.0 02:10:00 11° SE 02:10:40 12° SE 02:12:03 10° ESE visible
28 Sep 1.5 03:45:11 13° SW 03:48:42 64° SE 03:52:33 10° ENE visible
29 Sep 3.9 01:57:58 13° ESE 01:57:58 13° ESE 01:59:37 10° E visible
29 Sep 1.3 03:33:09 21° SW 03:35:45 72° SE 03:39:37 10° ENE visible
30 Sep 4.0 01:45:49 14° ESE 01:45:49 14° ESE 01:46:59 10° E visible
30 Sep 1.2 03:21:01 32° SW 03:22:46 80° SE 03:26:40 10° ENE visible
01 Oct 4.2 01:33:35 13° E 01:33:35 13° E 01:34:14 10° E visible
01 Oct 1.1 03:08:45 50° SW 03:09:46 89° SSE 03:13:41 10° NE visible
02 Oct 4.4 01:21:15 11° E 01:21:15 11° E 01:21:24 10° E visible
02 Oct 1.0 02:56:25 74° W 02:56:44 83° NW 03:00:39 10° NE visible
02 Oct 2.4 04:32:15 10° WNW 04:35:48 30° NNW 04:39:12 10° NE visible
03 Oct 1.3 02:44:00 70° N 02:44:00 70° N 02:47:36 10° NE visible
03 Oct 2.5 04:19:17 10° WNW 04:22:48 29° NNW 04:26:11 10° NE visible
04 Oct 2.0 02:31:31 49° NNE 02:31:31 49° NNE 02:34:32 10° NE visible
04 Oct 2.6 04:06:41 12° WNW 04:09:47 28° N 04:13:07 10° NE visible
05 Oct 2.7 02:18:59 36° NE 02:18:59 36° NE 02:21:26 10° NE visible
05 Oct 2.6 03:54:08 15° WNW 03:56:44 27° N 04:00:03 10° NE visible
06 Oct 3.2 02:06:23 27° NE 02:06:23 27° NE 02:08:18 10° NE visible
06 Oct 2.7 03:41:33 17° NW 03:43:39 27° N 03:46:58 10° NE visible
07 Oct 3.7 01:53:46 20° NE 01:53:46 20° NE 01:55:09 10° NE visible
07 Oct 2.7 03:28:55 20° NW 03:30:33 27° N 03:33:51 10° NE visible
